Weather History for Defuniak Springs, Defuniak Sp, FL

Change the Weather History Date:

Wednesday, February 26, 2014

  Actual Average (KCEW) Record (KCEW)
Temperature  
Mean Temperature 48 °F -  
Max Temperature 58 °F 66 °F 80 °F (1981)
Min Temperature 39 °F 43 °F 25 °F (1980)
Degree Days  
Heating Degree Days 16    
Moisture  
Dew Point 46 °F    
Average Humidity 91    
Maximum Humidity 100    
Minimum Humidity 68    
Precipitation  
Precipitation 0.63 in - - ()
Sea Level Pressure  
Sea Level Pressure 29.91 in    
Wind  
Wind Speed 7 mph (NNW)    
Max Wind Speed 16 mph    
Max Gust Speed 23 mph    
Visibility 8 miles    
Events Rain    
Averages and records for this station are not official NWS values.
T = Trace of Precipitation, MM = Missing Value Source: NWS Daily Summary

Daily Weather History Graph

Daily Weather History Graph

Search for Another Location

Airport:

Trip Planner

Search our weather history database for the weather conditions in past years. The results will help you decide how hot, cold, wet, or windy it might be!

Date:

Astronomy

Feb. 26, 2014 Rise Set
Actual Time 6:14 AM CST 5:41 PM CST
Civil Twilight 5:50 AM CST 6:05 PM CST
Nautical Twilight 5:22 AM CST 6:33 PM CST
Astronomical Twilight 4:54 AM CST 7:01 PM CST
Moon 3:51 AM CST (2/26) 3:02 PM CST (2/26)
Length of Visible Light 12h 15m
Length of Day
11h 26m
Waning Crescent, 10% of the Moon is Illuminated
Feb 26
Waning Crescent
Mar 1
New
Mar 8
First Quarter
Mar 16
Full
Mar 23
Last Quarter

Hourly Weather History & Observations

Time (CST) Temp. Windchill Dew Point Humidity Pressure Visibility Wind Dir Wind Speed Gust Speed Precip Events Conditions
12:15 AM 58.3 °F - 57.2 °F 96% 29.92 in 10.0 mi Calm Calm - N/A   Overcast
12:35 AM 58.5 °F - 57.4 °F 96% 29.92 in 10.0 mi Calm Calm - N/A   Overcast
12:55 AM 57.4 °F - 56.5 °F 97% 29.90 in 7.0 mi SSE 6.9 mph - N/A   Mostly Cloudy
1:15 AM 56.8 °F - 56.3 °F 98% 29.90 in 7.0 mi South 3.5 mph - N/A   Mostly Cloudy
1:35 AM 57.4 °F - 57.0 °F 99% 29.89 in 7.0 mi SSW 3.5 mph - N/A   Overcast
1:55 AM 58.1 °F - 58.1 °F 100% 29.88 in 1.8 mi SW 3.5 mph - N/A   Overcast
2:15 AM 58.3 °F - 58.3 °F 100% 29.90 in 0.2 mi West 4.6 mph - 0.01 in Rain Light Rain
2:35 AM 58.5 °F - 58.5 °F 100% 29.90 in 3.0 mi NW 3.5 mph - 0.03 in Rain Rain
2:55 AM 58.8 °F - 58.8 °F 100% 29.90 in 2.5 mi NW 4.6 mph - 0.14 in Rain Heavy Rain
3:15 AM 58.8 °F - 58.8 °F 100% 29.89 in 4.0 mi NNW 4.6 mph - 0.07 in Rain Heavy Rain
3:35 AM 58.6 °F - 58.6 °F 100% 29.88 in 4.0 mi NNW 3.5 mph - 0.11 in Rain Rain
3:55 AM 58.5 °F - 58.5 °F 100% 29.88 in 4.0 mi NW 3.5 mph - 0.14 in Rain Rain
4:15 AM 58.5 °F - 58.5 °F 100% 29.87 in 4.0 mi North 3.5 mph - 0.02 in Rain Light Rain
4:35 AM 58.3 °F - 58.3 °F 100% 29.86 in 5.0 mi NNE 3.5 mph - 0.02 in Rain Light Rain
4:55 AM 58.1 °F - 58.1 °F 100% 29.87 in 5.0 mi North 4.6 mph - 0.04 in Rain Light Rain
5:15 AM 57.4 °F - 56.7 °F 97% 29.86 in 7.0 mi North 4.6 mph - N/A Rain Light Rain
5:35 AM 56.8 °F - 56.3 °F 98% 29.87 in 7.0 mi NW 3.5 mph - 0.05 in Rain Rain
5:55 AM 56.5 °F - 56.3 °F 99% 29.86 in 5.0 mi North 3.5 mph - 0.08 in Rain Rain
6:15 AM 56.5 °F - 56.3 °F 99% 29.87 in 5.0 mi Calm Calm - 0.01 in Rain Rain
6:35 AM 56.5 °F - 56.3 °F 99% 29.87 in 3.0 mi Calm Calm - 0.05 in Rain Rain
6:55 AM 56.7 °F - 56.7 °F 100% 29.88 in 3.0 mi North 4.6 mph - 0.08 in Rain Rain
7:15 AM 56.1 °F - 55.8 °F 99% 29.89 in 7.0 mi North 15.0 mph 19.6 mph 0.02 in Rain Rain
7:35 AM 53.2 °F - 52.3 °F 97% 29.90 in 7.0 mi North 16.1 mph 23.0 mph 0.04 in Rain Rain
7:55 AM 52.0 °F - 51.4 °F 98% 29.91 in 7.0 mi North 11.5 mph 19.6 mph 0.07 in Rain Rain
8:15 AM 51.4 °F - 50.9 °F 98% 29.91 in 7.0 mi North 12.7 mph 17.3 mph 0.02 in Rain Rain
8:35 AM 51.1 °F - 50.2 °F 97% 29.93 in 10.0 mi North 13.8 mph 20.7 mph 0.02 in Rain Light Rain
8:55 AM 50.5 °F - 49.6 °F 97% 29.92 in 10.0 mi North 16.1 mph 21.9 mph 0.03 in Rain Light Rain
9:15 AM 50.0 °F - 49.1 °F 97% 29.94 in 10.0 mi North 13.8 mph 19.6 mph N/A Rain Light Rain
9:35 AM 49.6 °F - 48.7 °F 97% 29.95 in 10.0 mi North 11.5 mph - N/A Rain Rain
9:55 AM 50.2 °F - 49.1 °F 96% 29.94 in 10.0 mi North 12.7 mph 18.4 mph 0.01 in Rain Rain
10:15 AM 50.2 °F - 48.9 °F 95% 29.95 in 10.0 mi North 12.7 mph 17.3 mph N/A Rain Light Rain
10:35 AM 49.5 °F - 48.7 °F 97% 29.94 in 10.0 mi North 12.7 mph - N/A   Light Drizzle
10:55 AM 48.7 °F - 48.0 °F 97% 29.92 in 10.0 mi NNE 9.2 mph - N/A   Drizzle
11:15 AM 48.9 °F - 48.4 °F 98% 29.91 in 10.0 mi NNE 6.9 mph - N/A Rain Light Rain
11:35 AM 49.1 °F - 47.7 °F 95% 29.91 in 10.0 mi NNE 9.2 mph - N/A Rain Light Rain
11:55 AM 49.1 °F - 47.5 °F 94% 29.90 in 10.0 mi NNE 6.9 mph - 0.01 in Rain Light Rain
12:15 PM 48.9 °F - 47.8 °F 96% 29.91 in 10.0 mi North 10.4 mph - N/A Rain Light Rain
12:35 PM 47.3 °F - 46.6 °F 97% 29.91 in 10.0 mi NNW 11.5 mph - 0.01 in Rain Light Rain
12:55 PM 46.6 °F - 45.5 °F 96% 29.89 in 10.0 mi North 10.4 mph 17.3 mph 0.01 in Rain Light Rain
1:15 PM 45.1 °F 39.5 °F 44.2 °F 97% 29.88 in 10.0 mi North 11.5 mph - 0.01 in Rain Light Rain
1:35 PM 45.3 °F 40.1 °F 44.4 °F 97% 29.86 in 10.0 mi North 10.4 mph - 0.01 in Rain Light Rain
1:55 PM 44.8 °F 39.9 °F 44.4 °F 99% 29.88 in 10.0 mi North 9.2 mph - 0.02 in Rain Rain
2:15 PM 44.6 °F 39.7 °F 43.9 °F 97% 29.87 in 10.0 mi North 9.2 mph - N/A Rain Rain
2:35 PM 44.6 °F 39.7 °F 43.5 °F 96% 29.88 in 10.0 mi North 9.2 mph - N/A   Drizzle
2:55 PM 44.8 °F 39.9 °F 43.7 °F 96% 29.87 in 10.0 mi North 9.2 mph - N/A   Overcast
3:15 PM 44.6 °F 40.7 °F 43.3 °F 95% 29.87 in 10.0 mi NNW 6.9 mph - N/A   Overcast
3:35 PM 44.6 °F 38.4 °F 42.6 °F 93% 29.87 in 10.0 mi North 12.7 mph - N/A   Overcast
3:55 PM 44.4 °F 38.6 °F 42.1 °F 91% 29.88 in 10.0 mi NNW 11.5 mph - N/A   Overcast
4:15 PM 44.6 °F 37.8 °F 41.4 °F 88% 29.87 in 10.0 mi North 15.0 mph 18.4 mph N/A   Overcast
4:35 PM 44.4 °F 37.9 °F 41.2 °F 88% 29.88 in 10.0 mi North 13.8 mph - N/A   Overcast
4:55 PM 43.7 °F 37.3 °F 40.5 °F 88% 29.90 in 10.0 mi NNW 12.7 mph 20.7 mph N/A   Overcast
5:15 PM 43.2 °F 37.4 °F 39.0 °F 85% 29.91 in 10.0 mi NNW 10.4 mph 21.9 mph N/A   Overcast
5:35 PM 42.8 °F 35.8 °F 37.4 °F 81% 29.91 in 10.0 mi North 13.8 mph 20.7 mph N/A   Overcast
5:55 PM 42.6 °F 36.8 °F 37.8 °F 83% 29.92 in 10.0 mi NNW 10.4 mph 17.3 mph N/A   Overcast
6:15 PM 42.3 °F 35.5 °F 37.0 °F 82% 29.92 in 10.0 mi NNW 12.7 mph 16.1 mph N/A   Overcast
6:35 PM 42.3 °F 36.8 °F 36.9 °F 81% 29.92 in 10.0 mi North 9.2 mph - N/A   Overcast
6:55 PM 42.3 °F 36.8 °F 36.7 °F 81% 29.93 in 10.0 mi NNW 9.2 mph - N/A   Overcast
7:15 PM 42.3 °F 36.3 °F 36.5 °F 80% 29.94 in 10.0 mi NNW 10.4 mph - N/A   Overcast
7:35 PM 42.3 °F 36.8 °F 36.5 °F 80% 29.95 in 10.0 mi NNW 9.2 mph - N/A   Overcast
7:55 PM 42.3 °F 35.5 °F 34.7 °F 75% 29.95 in 10.0 mi North 12.7 mph 17.3 mph N/A   Overcast
8:15 PM 41.9 °F 35.4 °F 32.9 °F 70% 29.95 in 10.0 mi NNW 11.5 mph 18.4 mph N/A   Overcast
8:35 PM 41.4 °F 34.3 °F 31.8 °F 69% 29.96 in 10.0 mi North 12.7 mph 18.4 mph N/A   Overcast
8:55 PM 40.8 °F 33.7 °F 30.9 °F 68% 29.97 in 10.0 mi North 12.7 mph - N/A   Overcast
9:15 PM 40.3 °F 34.4 °F 31.1 °F 70% 29.98 in 10.0 mi NNW 9.2 mph 17.3 mph N/A   Mostly Cloudy
9:35 PM 40.1 °F 34.7 °F 30.9 °F 70% 29.99 in 10.0 mi North 8.1 mph 17.3 mph N/A   Scattered Clouds
9:55 PM 40.1 °F 32.7 °F 31.8 °F 72% 29.99 in 10.0 mi NNW 12.7 mph - N/A   Clear
10:15 PM 39.6 °F 34.0 °F 31.1 °F 72% 30.00 in 10.0 mi NNW 8.1 mph - N/A   Clear
10:35 PM 39.6 °F 33.5 °F 31.6 °F 73% 29.99 in 10.0 mi North 9.2 mph - N/A   Clear
10:55 PM 39.4 °F 32.7 °F 31.3 °F 73% 29.98 in 10.0 mi NNW 10.4 mph - N/A   Clear
11:15 PM 39.2 °F 33.0 °F 30.9 °F 72% 29.99 in 10.0 mi NNW 9.2 mph 17.3 mph N/A   Clear
11:35 PM 39.2 °F 33.0 °F 30.9 °F 72% 29.99 in 10.0 mi NNW 9.2 mph - N/A   Clear
11:55 PM 39.2 °F 31.2 °F 30.4 °F 71% 29.98 in 10.0 mi NNW 13.8 mph 18.4 mph N/A   Clear